Location: Natural Bridges National Monument
(37.6093°N, 109.9767°W)
Time: 17:29:36
(UTC-07:00)

Amateur Radio Satellites - All Passes

Search period start: 31 January 2015 16:59
Search period end: 01 February 2015 16:59
Location: Natural Bridges National Monument, 37.6093°N, 109.9767°W

Satellite Date Start Highest point End Downlink Frequencies (MHz)
Time Altitude Azimuth
AO-7 31 Jan 17:05:02 17:11:56 27° 266° (W) 17:18:33 29.400- 29.500
JAS-2 31 Jan 17:11:13 17:16:06 31° 263° (W) 17:20:41 435.910
CUTE-I 31 Jan 17:16:29 17:21:23 40° 71° (ENE) 17:26:22 437.470
JUGNU 31 Jan 17:16:49 17:19:17 13° 175° (S) 17:21:48 437.505
O/OREOS (USA 219) 31 Jan 17:20:23 17:22:47 14° 306° (NW) 17:24:59 437.305
SO-50 31 Jan 17:20:58 17:23:11 13° 40° (NE) 17:25:35 436.795
PRISM 31 Jan 17:51:31 17:54:18 18° 93° (E) 17:57:15 437.425
SRMSAT 31 Jan 18:02:54 18:04:38 11° 171° (S) 18:06:26 437.500
YUBILEINY 31 Jan 18:22:31 18:29:08 27° 84° (E) 18:36:06 435.215
STRAND 1 31 Jan 18:28:30 18:32:43 26° 94° (E) 18:37:02 437.568
MOZHAYETS 4 31 Jan 18:33:27 18:36:02 15° 293° (WNW) 18:38:26
Cubesat XI-IV 31 Jan 18:37:25 18:42:16 35° 263° (W) 18:47:05 437.490
CUBESAT XI-V 31 Jan 18:54:35 18:59:18 73° 100° (E) 19:04:01 437.345
CUTE-I 31 Jan 18:57:24 19:01:38 23° 267° (W) 19:05:46 437.470
SO-50 31 Jan 18:59:35 19:04:34 85° 62° (ENE) 19:09:28 436.795
JUGNU 31 Jan 19:05:03 19:07:29 12° 185° (S) 19:09:52 437.505
SEEDS 31 Jan 19:20:14 19:21:34 12° 66° (ENE) 19:23:09 437.485
PRISM 31 Jan 19:26:12 19:29:57 32° 288° (WNW) 19:33:40 437.425
COMPASS 1 31 Jan 19:41:24 19:44:02 17° 69° (ENE) 19:46:49 437.405
DOVE 4 31 Jan 19:43:18 19:47:07 22° 67° (ENE) 19:51:10 437.250
GOMX 1 31 Jan 19:43:20 19:47:44 30° 69° (ENE) 19:52:27 467.674
SRMSAT 31 Jan 19:50:07 19:52:59 14° 181° (S) 19:55:51 437.500
HO-68 31 Jan 19:53:29 20:00:24 56° 70° (ENE) 20:07:23 435.675
ISS 31 Jan 19:54:08 19:56:27 18° 131° (SE) 19:58:50 145.825
BRITE-PL 31 Jan 20:01:16 20:06:17 64° 75° (ENE) 20:11:45 437.365/2234.400
CANX-2 31 Jan 20:02:25 20:06:32 46° 74° (ENE) 20:10:39 2200.000
AAUSAT CUBESAT 2 31 Jan 20:04:37 20:08:07 26° 71° (ENE) 20:11:40 437.432
CUBEBUG 2 31 Jan 20:06:18 20:07:36 11° 64° (ENE) 20:09:11 437.445
STRAND 1 31 Jan 20:07:20 20:11:59 34° 290° (WNW) 20:16:34 437.568
YUBILEINY 31 Jan 20:16:53 20:25:26 60° 282° (WNW) 20:34:01 435.215
CUTE 1.7 + AOD 2 31 Jan 20:25:57 20:30:15 80° 77° (ENE) 20:34:32 437.475
CUBESAT XI-V 31 Jan 20:34:43 20:36:14 11° 295° (WNW) 20:37:28 437.345
Oscar 11 31 Jan 20:37:45 20:41:34 31° 71° (ENE) 20:45:26 145.826/435.025
UWE-3 31 Jan 20:38:09 20:41:32 21° 69° (ENE) 20:45:03 435.000/436.395/437.385
CINEMA 3 31 Jan 20:45:46 20:50:32 51° 73° (ENE) 20:55:26 145.822/145.860
SEEDS 31 Jan 20:52:47 20:56:59 57° 260° (W) 21:01:11 437.485
VELOX 1 31 Jan 21:08:50 21:11:20 15° 67° (ENE) 21:14:02 145.980
UKube-1 31 Jan 21:14:19 21:18:27 46° 73° (ENE) 21:22:38 .
COMPASS 1 31 Jan 21:15:35 21:19:31 37° 263° (W) 21:23:26 437.405
HUMSAT D 31 Jan 21:16:28 21:19:47 22° 70° (ENE) 21:23:12 437.325/437.525
DELFI C3 31 Jan 21:18:30 21:22:34 75° 75° (ENE) 21:26:39 145.870
DOVE 4 31 Jan 21:19:46 21:24:34 43° 263° (W) 21:29:35 437.250
GOMX 1 31 Jan 21:21:16 21:25:48 31° 266° (W) 21:30:30 467.674
AIST 1 31 Jan 21:28:38 21:31:34 18° 72° (ENE) 21:34:39
ISS 31 Jan 21:29:38 21:32:45 39° 326° (NW) 21:35:51 145.825
ZACube-1 31 Jan 21:34:16 21:38:50 67° 76° (ENE) 21:43:26 437.345
DX 1 31 Jan 21:38:19 21:42:39 87° 250° (WSW) 21:47:04 434.975-435.025
CUBEBUG 2 31 Jan 21:38:59 21:43:44 76° 259° (WSW) 21:48:33 437.445
AAUSAT CUBESAT 2 31 Jan 21:40:25 21:43:46 22° 266° (W) 21:47:03 437.432
CANX-2 31 Jan 21:40:34 21:42:47 13° 270° (W) 21:44:47 2200.000
SRMSAT 31 Jan 21:40:48 21:41:20 10° 191° (S) 21:41:47 437.500
BRITE-PL 31 Jan 21:42:35 21:45:28 14° 273° (W) 21:48:08 437.365/2234.400
HO-68 31 Jan 21:42:47 21:48:33 25° 267° (W) 21:54:07 435.675
FUNcube-1 31 Jan 21:45:12 21:49:49 87° 75° (ENE) 21:54:26 145.935
UNISAT 6 31 Jan 21:51:45 21:53:31 12° 89° (E) 21:55:31 437.425
50 SAT 31 Jan 22:01:03 22:05:04 51° 75° (ENE) 22:09:06 437.505
NANOSAT C BR1 31 Jan 22:10:43 22:12:02 11° 89° (E) 22:13:37 145.865
UWE-3 31 Jan 22:13:29 22:17:51 38° 263° (W) 22:22:13 435.000/436.395/437.385
Oscar 11 31 Jan 22:14:31 22:17:50 20° 267° (W) 22:21:01 145.826/435.025
AISAT 31 Jan 22:16:20 22:20:48 89° 77° (ENE) 22:25:18 437.250
CINEMA 3 31 Jan 22:24:52 22:28:06 17° 270° (W) 22:31:09 145.822/145.860
QB50P2 31 Jan 22:25:23 22:28:18 18° 93° (E) 22:31:19 145.880/145.840
ANTELSAT 31 Jan 22:26:16 22:30:11 32° 96° (E) 22:34:04 437.575/2403.000
ESTCUBE 1 31 Jan 22:28:32 22:32:50 49° 74° (ENE) 22:37:12 437.505/2401.250
BUGSAT 1 31 Jan 22:30:39 22:33:08 15° 91° (E) 22:35:47 437.445
TIGRISAT 31 Jan 22:32:11 22:36:14 36° 97° (E) 22:40:14 435.000
QB50P1 31 Jan 22:33:22 22:36:41 22° 94° (E) 22:40:04 145.935-145.965
CUBEBUG 1 31 Jan 22:42:45 22:47:03 66° 76° (ENE) 22:51:24 437.445
VELOX 1 31 Jan 22:43:20 22:47:35 46° 261° (W) 22:51:53 145.980
TISAT 1 31 Jan 22:45:45 22:48:14 16° 67° (ENE) 22:50:54 437.305
POLYITAN 1 31 Jan 22:49:41 22:53:36 34° 97° (E) 22:57:32 437.675
HUMSAT D 31 Jan 22:51:38 22:55:27 29° 264° (W) 22:59:15 437.325/437.525
UKube-1 31 Jan 22:52:39 22:54:56 14° 269° (W) 22:57:02 .
AIST 1 31 Jan 23:05:26 23:09:23 33° 268° (W) 23:13:18
POPSAT HIP 1 31 Jan 23:07:53 23:12:08 56° 100° (E) 23:16:20 437.405
DUCHIFAT 1 31 Jan 23:08:47 23:13:01 57° 100° (E) 23:17:13 145.980
ISS 31 Jan 23:09:25 23:09:59 10° 344° (NNW) 23:10:30 145.825
ZACube-1 31 Jan 23:14:39 23:15:45 10° 272° (W) 23:16:31 437.345
UNISAT 6 31 Jan 23:26:28 23:30:45 50° 286° (WNW) 23:34:55 437.425
50 SAT 31 Jan 23:39:14 23:40:33 11° 271° (W) 23:41:38 437.505
NANOSAT C BR1 31 Jan 23:44:07 23:48:20 53° 286° (WNW) 23:52:30 145.865
SPROUT 31 Jan 23:52:28 23:56:47 86° 257° (WSW) 00:01:09 437.525
QB50P2 01 Feb 00:00:26 00:04:22 34° 288° (WNW) 00:08:12 145.880/145.840
ANTELSAT 01 Feb 00:03:31 00:06:49 20° 292° (WNW) 00:09:58 437.575/2403.000
BUGSAT 1 01 Feb 00:04:49 00:08:51 40° 287° (WNW) 00:12:51 437.445
ESTCUBE 1 01 Feb 00:07:45 00:10:06 14° 270° (W) 00:12:13 437.505/2401.250
QB50P1 01 Feb 00:08:52 00:12:36 28° 289° (WNW) 00:16:14 145.935-145.965
TIGRISAT 01 Feb 00:09:42 00:12:46 18° 292° (WNW) 00:15:39 435.000
TISAT 1 01 Feb 00:19:45 00:23:46 40° 262° (W) 00:27:49 437.305
GONETS M04 01 Feb 00:24:25 00:32:03 37° 87° (E) 00:39:51
POLYITAN 1 01 Feb 00:26:16 00:29:20 19° 292° (WNW) 00:32:16 437.675
SWISSCUBE 01 Feb 00:29:34 00:33:54 37° 71° (ENE) 00:38:18 437.505
BEESAT 01 Feb 00:44:31 00:49:04 49° 73° (ENE) 00:53:42 436.000
POPSAT HIP 1 01 Feb 00:45:47 00:47:36 12° 294° (WNW) 00:49:12 437.405
DUCHIFAT 1 01 Feb 00:46:42 00:48:27 12° 294° (WNW) 00:49:58 145.980
Oscar 19 01 Feb 00:47:51 00:51:09 18° 91° (E) 00:54:37 437.125/150
ITUPSAT 1 01 Feb 00:50:14 00:54:53 56° 73° (ENE) 00:59:33 437.325
BEESAT 2 01 Feb 00:58:53 01:02:16 26° 113° (ESE) 01:05:47 435.950
BEESAT 3 01 Feb 01:09:26 01:13:14 39° 115° (ESE) 01:17:08 437.485
AIST 2 01 Feb 01:11:43 01:13:55 14° 110° (ESE) 01:16:20 435.215
STARS 01 Feb 01:41:16 01:44:48 24° 69° (ENE) 01:48:25 437.465
O/OREOS (USA 219) 01 Feb 01:50:13 01:54:51 81° 69° (ENE) 01:59:26 437.305
KKS-1 01 Feb 01:53:34 01:57:54 50° 73° (ENE) 02:02:17 437.445
AUBIESAT-1 01 Feb 01:55:19 01:57:45 17° 66° (ENE) 02:00:10 437.475
SWISSCUBE 01 Feb 02:08:22 02:11:56 20° 267° (W) 02:15:23 437.505
GONETS M04 01 Feb 02:20:27 02:28:46 45° 285° (WNW) 02:36:59
ISS 01 Feb 02:23:08 02:25:22 17° 24° (NNE) 02:27:38 145.825
Gurwin Techsat 1B 01 Feb 02:24:12 02:29:05 37° 97° (E) 02:33:59 435.225
BEESAT 01 Feb 02:24:25 02:27:17 15° 269° (W) 02:29:57 436.000
Oscar 19 01 Feb 02:25:53 02:30:51 49° 287° (WNW) 02:35:45 437.125/150
ITUPSAT 1 01 Feb 02:30:45 02:33:13 13° 270° (W) 02:35:25 437.325
BEESAT 2 01 Feb 02:36:53 02:40:27 27° 309° (NW) 02:44:00 435.950
RS-15 01 Feb 02:40:54 02:47:02 18° 102° (ESE) 02:53:57 29.354- 29.394
AIST 2 01 Feb 02:48:03 02:52:10 48° 304° (NW) 02:56:22 435.215
ITAMSAT 1 01 Feb 02:48:31 02:53:47 88° 286° (WNW) 02:59:01 435.822/435.867
BEESAT 3 01 Feb 02:48:32 02:51:34 19° 313° (NW) 02:54:32 437.485
DANDE 01 Feb 02:53:47 03:00:03 25° 85° (E) 03:06:49 436.750
M-CUBED/EXP-1 PRIME 01 Feb 02:57:54 03:01:54 69° 253° (WSW) 03:05:36 437.505
CUSAT 1 01 Feb 03:05:23 03:12:34 35° 89° (E) 03:19:58 437.405
PCSat 01 Feb 03:15:24 03:20:24 41° 111° (ESE) 03:25:30 145.827
AO-7 01 Feb 03:15:30 03:21:21 22° 92° (E) 03:27:35 29.400- 29.500
STARS 01 Feb 03:17:19 03:21:11 28° 264° (W) 03:25:01 437.465
AUBIESAT-1 01 Feb 03:28:59 03:32:33 31° 257° (WSW) 03:35:50 437.475
KKS-1 01 Feb 03:32:37 03:34:55 13° 270° (W) 03:37:00 437.445
HORYU 2 01 Feb 03:37:44 03:42:09 62° 101° (E) 03:46:31 437.375
MOZHAYETS 4 01 Feb 03:54:56 03:59:10 38° 73° (ENE) 04:03:26
ISS 01 Feb 03:58:53 04:02:10 70° 221° (SW) 04:05:27 145.825
Gurwin Techsat 1B 01 Feb 04:04:31 04:08:55 26° 292° (WNW) 04:13:10 435.225
JAS-2 01 Feb 04:19:54 04:25:09 33° 97° (E) 04:31:05 435.910
ITAMSAT 1 01 Feb 04:31:26 04:32:37 11° 298° (WNW) 04:33:27 435.822/435.867
DANDE 01 Feb 04:34:34 04:42:54 72° 282° (WNW) 04:51:32 436.750
YUBILEINY 01 Feb 04:37:41 04:38:44 10° 56° (NE) 04:40:36 435.215
PRISM 01 Feb 04:42:23 04:43:26 11° 66° (ENE) 04:44:43 437.425
RS-15 01 Feb 04:47:07 04:58:03 87° 121° (ESE) 05:09:07 29.354- 29.394
CUSAT 1 01 Feb 04:47:19 04:55:24 52° 285° (WNW) 05:03:26 437.405
PCSat 01 Feb 04:59:23 05:04:00 27° 309° (NW) 05:08:32 145.827
AO-7 01 Feb 05:06:40 05:14:59 73° 290° (WNW) 05:23:13 29.400- 29.500
HORYU 2 01 Feb 05:16:37 05:18:22 12° 295° (WNW) 05:19:52 437.375
Cubesat XI-IV 01 Feb 05:18:49 05:20:37 12° 88° (E) 05:22:48 437.490
MOZHAYETS 4 01 Feb 05:33:23 05:36:37 18° 268° (W) 05:39:40
CUTE-I 01 Feb 05:36:22 05:39:58 19° 91° (E) 05:43:45 437.470
STRAND 1 01 Feb 05:42:36 05:47:01 31° 69° (ENE) 05:51:31 437.568
CUBESAT XI-V 01 Feb 05:56:10 06:00:39 56° 75° (ENE) 06:05:11 437.345
JAS-2 01 Feb 06:04:58 06:10:16 36° 289° (WNW) 06:16:05 435.910
PRISM 01 Feb 06:14:30 06:18:32 56° 259° (W) 06:22:35 437.425
DANDE 01 Feb 06:23:04 06:28:00 15° 301° (WNW) 06:32:23 436.750
YUBILEINY 01 Feb 06:29:08 06:37:51 64° 79° (E) 06:46:35 435.215
PHONESAT 2.4 01 Feb 06:41:59 06:44:12 16° 145° (SE) 06:46:30 2401.200-2431.200
Cubesat XI-IV 01 Feb 06:56:01 07:01:24 75° 286° (WNW) 07:06:47 437.490
VERMONT LUNAR 01 Feb 07:00:27 07:03:39 36° 153° (SSE) 07:06:54 437.305
AO-7 01 Feb 07:02:00 07:06:33 15° 308° (NW) 07:10:39 29.400- 29.500
RS-15 01 Feb 07:02:49 07:12:03 29° 325° (NW) 07:21:11 29.354- 29.394
CUTE-I 01 Feb 07:15:11 07:20:23 50° 288° (WNW) 07:25:34 437.470
STRAND 1 01 Feb 07:21:50 07:26:13 28° 265° (W) 07:30:32 437.568
CUBESAT XI-V 01 Feb 07:36:27 07:38:33 13° 271° (W) 07:40:24 437.345
GOMX 1 01 Feb 07:50:36 07:51:14 10° 85° (E) 07:52:16 467.674
BRITE-PL 01 Feb 08:09:00 08:13:37 27° 92° (E) 08:18:09 437.365/2234.400
CUTE 1.7 + AOD 2 01 Feb 08:14:43 08:17:11 16° 91° (E) 08:19:50 437.475
PHONESAT 2.4 01 Feb 08:18:49 08:22:24 71° 159° (SSE) 08:26:00 2401.200-2431.200
YUBILEINY 01 Feb 08:27:12 08:34:06 25° 276° (W) 08:40:40 435.215
VERMONT LUNAR 01 Feb 08:38:13 08:41:40 65° 348° (NNW) 08:45:09 437.305
SEEDS 01 Feb 08:39:50 08:43:19 26° 95° (E) 08:46:51 437.485
CINEMA 3 01 Feb 08:45:01 08:47:19 14° 88° (E) 08:49:49 145.822/145.860
UNISAT 6 01 Feb 08:50:11 08:51:23 11° 65° (ENE) 08:52:52 437.425
COMPASS 1 01 Feb 09:01:12 09:05:05 38° 97° (E) 09:08:58 437.405
DELFI C3 01 Feb 09:02:50 09:04:14 12° 90° (E) 09:05:53 145.870
HO-68 01 Feb 09:10:30 09:17:39 70° 103° (ESE) 09:24:48 435.675
SO-50 01 Feb 09:12:34 09:16:49 42° 115° (ESE) 09:21:15 436.795
QB50P2 01 Feb 09:18:24 09:19:51 12° 66° (ENE) 09:21:33 145.880/145.840
DOVE 4 01 Feb 09:21:12 09:26:19 67° 101° (E) 09:31:07 437.250
BEESAT 2 01 Feb 09:21:34 09:23:09 12° 42° (NE) 09:24:52 435.950
ANTELSAT 01 Feb 09:23:34 09:27:24 26° 70° (ENE) 09:31:17 437.575/2403.000
RS-15 01 Feb 09:23:57 09:29:46 15° 359° (N) 09:35:40 29.354- 29.394
AAUSAT CUBESAT 2 01 Feb 09:24:43 09:28:50 65° 101° (E) 09:32:57 437.432
GOMX 1 01 Feb 09:24:50 09:30:13 82° 285° (WNW) 09:35:16 467.674
CANX-2 01 Feb 09:25:32 09:29:44 66° 284° (WNW) 09:33:53 2200.000
QB50P1 01 Feb 09:25:44 09:27:55 14° 67° (ENE) 09:30:18 145.935-145.965
ZACube-1 01 Feb 09:26:58 09:29:16 14° 90° (E) 09:31:45 437.345
TIGRISAT 01 Feb 09:29:06 09:33:04 28° 71° (ENE) 09:37:07 435.000
DX 1 01 Feb 09:29:42 09:32:44 19° 93° (E) 09:35:53 434.975-435.025
BEESAT 3 01 Feb 09:31:23 09:34:00 16° 46° (NE) 09:36:42 437.485
CUBEBUG 2 01 Feb 09:33:16 09:36:59 26° 94° (E) 09:40:40 437.445
FUNcube-1 01 Feb 09:37:10 09:40:12 19° 92° (E) 09:43:18 145.935
POLYITAN 1 01 Feb 09:41:40 09:44:56 22° 69° (ENE) 09:48:18 437.675
BRITE-PL 01 Feb 09:47:04 09:52:13 37° 290° (WNW) 09:57:05 437.365/2234.400
CUTE 1.7 + AOD 2 01 Feb 09:49:24 09:53:20 37° 287° (WNW) 09:57:12 437.475
PHONESAT 2.4 01 Feb 09:57:31 10:01:04 53° 356° (N) 10:04:37 2401.200-2431.200
AIST 1 01 Feb 09:58:32 09:59:33 11° 86° (E) 10:00:51
POPSAT HIP 1 01 Feb 09:59:10 10:03:00 33° 72° (ENE) 10:06:54 437.405
DUCHIFAT 1 01 Feb 09:59:46 10:03:35 33° 72° (ENE) 10:07:28 145.980
Oscar 11 01 Feb 10:02:32 10:06:52 84° 101° (ESE) 10:11:10 145.826/435.025
UWE-3 01 Feb 10:05:37 10:09:57 50° 99° (E) 10:14:09 435.000/436.395/437.385
AISAT 01 Feb 10:10:16 10:13:33 20° 93° (E) 10:16:56 437.250
SEEDS 01 Feb 10:15:44 10:19:04 23° 290° (WNW) 10:22:19 437.485
VERMONT LUNAR 01 Feb 10:16:35 10:20:00 52° 5° (N) 10:23:26 437.305
CINEMA 3 01 Feb 10:20:21 10:25:00 51° 286° (WNW) 10:29:24 145.822/145.860
UNISAT 6 01 Feb 10:22:56 10:27:39 74° 258° (WSW) 10:32:21 437.425
ESTCUBE 1 01 Feb 10:25:18 10:27:01 12° 90° (E) 10:28:59 437.505/2401.250
NANOSAT C BR1 01 Feb 10:34:40 10:38:56 87° 78° (ENE) 10:43:16 145.865
CUBEBUG 1 01 Feb 10:35:13 10:37:37 15° 91° (E) 10:40:12 437.445
DELFI C3 01 Feb 10:35:56 10:39:49 45° 286° (WNW) 10:43:40 145.870
VELOX 1 01 Feb 10:36:00 10:40:11 37° 98° (E) 10:44:22 145.980
HUMSAT D 01 Feb 10:37:39 10:41:46 51° 99° (E) 10:45:49 437.325/437.525
COMPASS 1 01 Feb 10:37:56 10:40:33 16° 292° (WNW) 10:43:00 437.405
GONETS M04 01 Feb 10:38:13 10:42:35 15° 60° (ENE) 10:47:34
UKube-1 01 Feb 10:39:49 10:44:10 71° 285° (WNW) 10:48:30 .
QB50P2 01 Feb 10:51:07 10:55:21 58° 260° (W) 10:59:37 145.880/145.840
BUGSAT 1 01 Feb 10:52:48 10:56:53 75° 258° (WSW) 11:01:05 437.445
SO-50 01 Feb 10:53:57 10:57:36 22° 314° (NW) 11:01:14 436.795
BEESAT 2 01 Feb 10:57:46 11:01:57 76° 242° (WSW) 11:06:03 435.950
QB50P1 01 Feb 10:59:20 11:03:27 47° 261° (W) 11:07:37 145.935-145.965
HO-68 01 Feb 10:59:32 11:04:49 22° 299° (WNW) 11:09:50 435.675
ANTELSAT 01 Feb 10:59:56 11:04:06 30° 264° (W) 11:08:11 437.575/2403.000
DOVE 4 01 Feb 11:00:50 11:03:29 14° 296° (WNW) 11:05:50 437.250
ZACube-1 01 Feb 11:01:48 11:05:58 42° 287° (WNW) 11:10:00 437.345
DX 1 01 Feb 11:05:06 11:09:07 35° 289° (WNW) 11:13:06 434.975-435.025
TIGRISAT 01 Feb 11:05:47 11:09:48 27° 265° (W) 11:13:43 435.000
BEESAT 3 01 Feb 11:08:26 11:12:28 48° 243° (WSW) 11:16:24 437.485
CUBEBUG 2 01 Feb 11:09:54 11:13:39 25° 290° (WNW) 11:17:13 437.445
AIST 2 01 Feb 11:11:40 11:15:54 60° 57° (ENE) 11:20:04 435.215
FUNcube-1 01 Feb 11:12:45 11:16:42 33° 288° (WNW) 11:20:30 145.935
POLYITAN 1 01 Feb 11:16:57 11:20:44 29° 264° (W) 11:24:31 437.675
50 SAT 01 Feb 11:17:21 11:21:23 69° 284° (WNW) 11:25:20 437.505
AIST 1 01 Feb 11:32:41 11:36:49 50° 280° (W) 11:40:59
POPSAT HIP 1 01 Feb 11:35:56 11:39:01 19° 267° (W) 11:42:01 437.405
PHONESAT 2.4 01 Feb 11:36:15 11:39:51 69° 12° (NNE) 11:43:29 2401.200-2431.200
DUCHIFAT 1 01 Feb 11:36:30 11:39:33 19° 267° (W) 11:42:31 145.980
RS-15 01 Feb 11:38:38 11:47:42 28° 34° (NNE) 11:57:23 29.354- 29.394
SPROUT 01 Feb 11:42:13 11:45:17 19° 93° (E) 11:48:28 437.525
UWE-3 01 Feb 11:43:46 11:46:05 14° 294° (WNW) 11:48:10 435.000/436.395/437.385
AISAT 01 Feb 11:46:12 11:50:18 34° 289° (WNW) 11:54:19 437.250
VERMONT LUNAR 01 Feb 11:54:43 11:58:12 67° 202° (SSW) 12:01:41 437.305
ESTCUBE 1 01 Feb 11:59:52 12:04:20 56° 285° (WNW) 12:08:46 437.505/2401.250
Oscar 19 01 Feb 12:02:49 12:06:42 23° 67° (ENE) 12:10:44 437.125/150
PCSat 01 Feb 12:05:26 12:09:44 24° 50° (NE) 12:14:07 145.827
TISAT 1 01 Feb 12:06:34 12:10:30 35° 97° (E) 12:14:26 437.305
CUBEBUG 1 01 Feb 12:10:01 12:14:18 45° 286° (WNW) 12:18:31 437.445
VELOX 1 01 Feb 12:13:20 12:16:31 19° 292° (WNW) 12:19:36 145.980
HUMSAT D 01 Feb 12:15:17 12:17:10 12° 294° (WNW) 12:18:50 437.325/437.525
ITAMSAT 1 01 Feb 12:28:29 12:30:50 14° 63° (ENE) 12:33:27 435.822/435.867
GONETS M04 01 Feb 12:32:20 12:41:05 84° 84° (E) 12:49:48
SWISSCUBE 01 Feb 12:34:27 12:35:31 11° 89° (E) 12:36:55 437.505
BEESAT 01 Feb 12:48:14 12:50:48 15° 91° (E) 12:53:36 436.000
AIST 2 01 Feb 12:52:39 12:54:03 11° 251° (WSW) 12:55:13 435.215
ITUPSAT 1 01 Feb 12:54:02 12:57:02 17° 92° (E) 13:00:13 437.325
PHONESAT 2.4 01 Feb 13:14:58 13:18:19 35° 208° (SSW) 13:21:39 2401.200-2431.200
SPROUT 01 Feb 13:17:34 13:21:30 33° 288° (WNW) 13:25:21 437.525
VERMONT LUNAR 01 Feb 13:33:53 13:35:55 14° 215° (SW) 13:37:52 437.305
Oscar 19 01 Feb 13:40:56 13:45:49 41° 262° (W) 13:50:43 437.125/150
TISAT 1 01 Feb 13:43:04 13:46:06 18° 292° (WNW) 13:49:00 437.305
Gurwin Techsat 1B 01 Feb 13:43:21 13:48:24 48° 72° (ENE) 13:53:31 435.225
DANDE 01 Feb 13:43:21 13:44:35 11° 55° (NE) 13:46:07 436.750
PCSat 01 Feb 13:48:13 13:53:26 47° 248° (WSW) 13:58:35 145.827
KKS-1 01 Feb 13:49:10 13:50:29 11° 89° (E) 13:52:04 437.445
RS-15 01 Feb 13:50:37 14:02:06 85° 60° (ENE) 14:14:06 29.354- 29.394
CUSAT 1 01 Feb 13:51:59 13:54:49 14° 59° (ENE) 13:57:31 437.405
ITAMSAT 1 01 Feb 14:04:39 14:09:47 72° 257° (WSW) 14:15:00 435.822/435.867
SWISSCUBE 01 Feb 14:09:11 14:13:58 69° 286° (WNW) 14:18:43 437.505
AO-7 01 Feb 14:12:35 14:19:11 28° 59° (ENE) 14:26:02 29.400- 29.500
BEESAT 01 Feb 14:24:23 14:29:01 51° 287° (WNW) 14:33:39 436.000
O/OREOS (USA 219) 01 Feb 14:24:45 14:25:58 11° 99° (E) 14:27:29 437.305
ITUPSAT 1 01 Feb 14:30:38 14:35:14 45° 287° (WNW) 14:39:46 437.325
GONETS M04 01 Feb 14:31:31 14:36:59 18° 279° (W) 14:41:55
HORYU 2 01 Feb 14:34:17 14:38:33 45° 73° (ENE) 14:42:52 437.375
STARS 01 Feb 15:08:32 15:12:57 61° 101° (E) 15:17:19 437.465
AUBIESAT-1 01 Feb 15:12:45 15:14:41 15° 99° (E) 15:16:49 437.475
KKS-1 01 Feb 15:23:11 15:27:36 58° 286° (WNW) 15:31:59 437.445
DANDE 01 Feb 15:23:33 15:29:38 83° 265° (W) 15:34:02 436.750
Gurwin Techsat 1B 01 Feb 15:24:54 15:28:42 19° 268° (W) 15:32:19 435.225
CUSAT 1 01 Feb 15:33:24 15:38:46 51° 268° (W) 15:42:43 437.405
MOZHAYETS 4 01 Feb 15:55:00 15:55:33 10° 88° (E) 15:56:25
O/OREOS (USA 219) 01 Feb 16:00:29 16:04:55 58° 293° (WNW) 16:09:24 437.305
AO-7 01 Feb 16:03:10 16:11:28 65° 256° (WSW) 16:19:47 29.400- 29.500
RS-15 01 Feb 16:04:53 16:13:31 24° 256° (WSW) 16:21:43 29.354- 29.394
HORYU 2 01 Feb 16:12:48 16:15:31 15° 269° (W) 16:18:02 437.375
JAS-2 01 Feb 16:15:26 16:20:53 80° 77° (ENE) 16:26:06 435.910
M-CUBED/EXP-1 PRIME 01 Feb 16:16:22 16:19:41 59° 289° (WNW) 16:23:09 437.505
Cubesat XI-IV 01 Feb 16:38:27 16:41:52 18° 65° (ENE) 16:45:29 437.490
AUBIESAT-1 01 Feb 16:46:49 16:49:42 26° 292° (WNW) 16:52:39 437.475
STARS 01 Feb 16:47:10 16:48:58 12° 295° (WNW) 16:50:33 437.465
